Simultaneous Nadir Overpasses (SNOs) Predictions

Prediction of SNOs between FY3D and AQUA Satellite Orbit:

Table of predicted SNOs for the next 14.0 days since TLE Epoch: 1/6/2024
Index Date (FY3D) Time (FY3D) Lat,Lon (FY3D) SZA (FY3D ) Date (AQUA) Time (AQUA) Lat,Lon (AQUA) SZA (AQUA ) Distance(km) Time Diff (sec)
1 01/07/2024 11:06:51 79.18, -6.32 102.21 01/07/2024 11:07:29 79.18, -6.37 102.20 1.03 38
2 01/07/2024 11:57:27 -78.86, 163.31 78.25 01/07/2024 11:56:44 -78.87, 163.18 78.22 2.94 43
3 01/10/2024 00:01:32 79.25, 159.49 101.98 01/10/2024 00:02:10 79.24, 159.56 101.96 1.55 38
4 01/10/2024 00:52:07 -78.89, -30.56 78.53 01/10/2024 00:51:24 -78.90, -30.61 78.51 1.10 43
5 01/12/2024 12:56:10 79.22, -33.94 101.58 01/12/2024 12:56:48 79.23, -33.96 101.57 0.48 38
6 01/12/2024 13:46:49 -79.01, 135.02 78.75 01/12/2024 13:46:05 -79.00, 135.15 78.75 2.66 44
7 01/15/2024 01:50:47 79.21, 132.59 101.13 01/15/2024 01:51:24 79.21, 132.57 101.12 0.51 37
8 01/15/2024 02:41:26 -78.98, -58.42 79.20 01/15/2024 02:40:41 -78.98, -58.33 79.20 1.95 45
9 01/17/2024 14:45:27 79.26, -61.44 100.74 01/17/2024 14:46:02 79.26, -61.38 100.72 1.34 35
10 01/17/2024 15:36:05 -79.00, 107.85 79.64 01/17/2024 15:35:18 -78.99, 107.98 79.65 3.15 47



Historial Predications of SNOs between FY3D and AQUA
